TimeEST,TemperatureF,Dew PointF,Humidity,Sea Level PressureIn,VisibilityMPH,Wind Direction,Wind SpeedMPH,Gust SpeedMPH,PrecipitationIn,Events,Conditions,WindDirDegrees,DateUTC
12:53 AM,46.0,37.0,71,29.88,10.0,Calm,Calm,-,N/A,,Mostly Cloudy,0,2013-11-03 04:53:00
1:53 AM,48.0,39.0,71,29.90,10.0,West,3.5,-,N/A,,Overcast,280,2013-11-03 05:53:00
1:53 AM,48.9,39.0,69,29.91,10.0,Calm,Calm,-,N/A,,Overcast,0,2013-11-03 06:53:00
2:53 AM,50.0,39.9,68,29.93,10.0,WNW,8.1,-,N/A,,Overcast,300,2013-11-03 07:53:00
3:18 AM,48.2,41.0,76,29.94,10.0,NW,10.4,-,N/A,,Overcast,310,2013-11-03 08:18:00
3:53 AM,46.9,41.0,80,29.97,10.0,North,10.4,-,0.00,Rain,Light Rain,360,2013-11-03 08:53:00
4:23 AM,46.4,39.2,76,29.99,10.0,NNW,8.1,-,0.00,,Overcast,330,2013-11-03 09:23:00
4:53 AM,45.0,36.0,71,30.02,10.0,NNW,10.4,-,0.00,Rain,Light Rain,340,2013-11-03 09:53:00
5:53 AM,45.0,36.0,71,30.06,10.0,NNW,10.4,-,0.00,,Overcast,340,2013-11-03 10:53:00
6:53 AM,43.0,34.0,71,30.09,10.0,NW,8.1,-,N/A,,Partly Cloudy,320,2013-11-03 11:53:00
7:53 AM,45.0,33.1,63,30.13,10.0,NW,11.5,17.3,N/A,,Clear,320,2013-11-03 12:53:00
8:53 AM,45.0,32.0,60,30.19,10.0,North,12.7,20.7,N/A,,Scattered Clouds,350,2013-11-03 13:53:00
9:53 AM,45.0,30.9,58,30.21,10.0,North,10.4,17.3,N/A,,Partly Cloudy,350,2013-11-03 14:53:00
10:53 AM,48.9,30.0,48,30.22,10.0,NNW,8.1,20.7,N/A,,Clear,340,2013-11-03 15:53:00
11:53 AM,51.1,30.0,44,30.22,10.0,NNW,9.2,18.4,N/A,,Clear,340,2013-11-03 16:53:00
12:53 PM,53.1,28.9,40,30.22,10.0,North,12.7,-,N/A,,Clear,350,2013-11-03 17:53:00
1:53 PM,53.1,27.0,37,30.22,10.0,NW,15.0,20.7,N/A,,Partly Cloudy,310,2013-11-03 18:53:00
2:53 PM,53.1,24.1,32,30.24,10.0,NW,10.4,-,N/A,,Clear,320,2013-11-03 19:53:00
3:53 PM,52.0,23.0,32,30.26,10.0,NNW,8.1,-,N/A,,Scattered Clouds,340,2013-11-03 20:53:00
4:53 PM,48.0,26.1,42,30.28,10.0,NNE,5.8,-,N/A,,Scattered Clouds,30,2013-11-03 21:53:00
5:53 PM,44.1,27.0,51,30.32,10.0,North,5.8,-,N/A,,Clear,350,2013-11-03 22:53:00
6:53 PM,42.1,26.1,53,30.35,10.0,NNE,4.6,-,N/A,,Clear,30,2013-11-03 23:53:00
7:53 PM,39.9,23.0,51,30.38,10.0,NNE,3.5,-,N/A,,Clear,20,2013-11-04 00:53:00
8:53 PM,37.9,21.9,53,30.43,10.0,NNE,5.8,-,N/A,,Clear,30,2013-11-04 01:53:00
9:53 PM,37.0,19.9,50,30.47,10.0,NNE,5.8,-,N/A,,Clear,30,2013-11-04 02:53:00
10:53 PM,36.0,19.0,50,30.48,10.0,North,6.9,-,N/A,,Clear,360,2013-11-04 03:53:00